| time (UTC) | temp C | wind direction | speed KPH | gust KPH | rain 1hr cm | rain 24hr cm | rain mn cm | humidity % | barometer mb |
| 20260506154513 | 12 | 90 | 1.6 | 8.0 | 0.00 | 0.00 | 0.00 | 59 | 1022.8 |
| 20260506153010 | 11 | 171 | 1.6 | 11.3 | 0.00 | 0.00 | 0.00 | 63 | 1022.7 |
| 20260506151503 | 10 | 236 | 1.6 | 8.0 | 0.00 | 0.00 | 0.00 | 68 | 1022.8 |
| 20260506150100 | 9 | 297 | 1.6 | 9.7 | 0.00 | 0.00 | 0.00 | 73 | 1023.0 |
| 20260506144605 | 7 | 200 | 1.6 | 4.8 | 0.00 | 0.00 | 0.00 | 79 | 1022.9 |
| 20260506143049 | 6 | 29 | 0.0 | 3.2 | 0.00 | 0.00 | 0.00 | 89 | 1022.8 |
| 20260506141544 | 4 | 98 | 0.0 | 0.0 | 0.00 | 0.00 | 0.00 | 95 | 1022.6 |
| 20260506140044 | 3 | 214 | 0.0 | 1.6 | 0.00 | 0.00 | 0.00 | 95 | 1022.5 |
| 20260506134536 | 2 | 240 | 0.0 | 1.6 | 0.00 | 0.00 | 0.00 | 95 | 1022.4 |
| 20260506133032 | 2 | 9 | 0.0 | 0.0 | 0.00 | 0.00 | 0.00 | 95 | 1022.2 |
| 20260506131530 | 1 | 166 | 0.0 | 1.6 | 0.00 | 0.00 | 0.00 | 96 | 1022.0 |
| 20260506130022 | 1 | 258 | 0.0 | 3.2 | 0.00 | 0.00 | 0.00 | 96 | 1021.8 |
| 20260506124517 | 1 | 47 | 0.0 | 1.6 | 0.00 | 0.00 | 0.00 | 96 | 1021.5 |
| 20260506123014 | 1 | 317 | 0.0 | 3.2 | 0.00 | 0.00 | 0.00 | 96 | 1021.4 |
| 20260506121510 | 1 | 195 | 0.0 | 3.2 | 0.00 | 0.00 | 0.00 | 96 | 1021.2 |
| 20260506120004 | 1 | 155 | 0.0 | 0.0 | 0.00 | 0.00 | 0.00 | 96 | 1021.0 |
| 20260506114601 | 1 | 110 | 0.0 | 0.0 | 0.00 | 0.00 | 0.00 | 96 | 1021.0 |
| 20260506113056 | 1 | 160 | 0.0 | 0.0 | 0.00 | 0.00 | 0.00 | 96 | 1020.9 |
| 20260506111551 | 1 | 342 | 0.0 | 0.0 | 0.00 | 0.00 | 0.00 | 95 | 1020.8 |
| 20260506110047 | 1 | 90 | 0.0 | 0.0 | 0.00 | 0.00 | 0.00 | 95 | 1020.7 |
| 20260506104543 | 1 | 150 | 0.0 | 0.0 | 0.00 | 0.00 | 0.00 | 95 | 1020.7 |
| 20260506103047 | 0 | 263 | 0.0 | 0.0 | 0.00 | 0.00 | 0.00 | 95 | 1020.7 |
| 20260506101532 | 0 | 118 | 0.0 | 0.0 | 0.00 | 0.00 | 0.00 | 95 | 1020.4 |
| 20260506100029 | 1 | 121 | 0.0 | 0.0 | 0.00 | 0.00 | 0.00 | 95 | 1020.2 |
| 20260506094525 | 1 | 53 | 0.0 | 0.0 | 0.00 | 0.00 | 0.00 | 95 | 1020.2 |
| 20260506093019 | 1 | 257 | 0.0 | 0.0 | 0.00 | 0.00 | 0.00 | 95 | 1020.1 |
| 20260506091517 | 1 | 248 | 0.0 | 0.0 | 0.00 | 0.00 | 0.00 | 95 | 1020.1 |
| 20260506090017 | 1 | 124 | 0.0 | 0.0 | 0.00 | 0.00 | 0.00 | 95 | 1020.2 |
| 20260506084508 | 1 | 135 | 0.0 | 0.0 | 0.00 | 0.00 | 0.00 | 95 | 1020.1 |
| 20260506083002 | 1 | 25 | 0.0 | 0.0 | 0.00 | 0.00 | 0.00 | 95 | 1020.1 |
| 20260506081607 | 1 | 3 | 0.0 | 0.0 | 0.00 | 0.00 | 0.00 | 95 | 1020.1 |
| 20260506073052 | 2 | 78 | 0.0 | 0.0 | 0.00 | 0.00 | 0.00 | 95 | 1019.9 |
| 20260506071539 | 2 | 58 | 0.0 | 1.6 | 0.00 | 0.00 | 0.00 | 95 | 1019.9 |
| 20260506061541 | 2 | 165 | 0.0 | 3.2 | 0.00 | 0.00 | 0.00 | 95 | 1019.0 |
| 20260506050120 | 3 | 174 | 0.0 | 0.0 | 0.00 | 0.00 | 0.00 | 94 | 1018.5 |
| 20260506044554 | 3 | 132 | 0.0 | 0.0 | 0.00 | 0.00 | 0.00 | 94 | 1018.5 |
| 20260506043052 | 3 | 150 | 0.0 | 0.0 | 0.00 | 0.00 | 0.00 | 94 | 1018.4 |
| 20260506041543 | 3 | 256 | 0.0 | 0.0 | 0.00 | 0.00 | 0.00 | 94 | 1018.2 |
| 20260506040042 | 3 | 204 | 0.0 | 0.0 | 0.00 | 0.00 | 0.00 | 94 | 1018.1 |
| 20260506034538 | 3 | 187 | 0.0 | 0.0 | 0.00 | 0.00 | 0.00 | 93 | 1018.0 |
| 20260506033033 | 3 | 277 | 0.0 | 0.0 | 0.00 | 0.00 | 0.00 | 93 | 1017.7 |
| 20260506031533 | 4 | 114 | 0.0 | 0.0 | 0.00 | 0.00 | 0.00 | 93 | 1017.5 |
| 20260506030027 | 5 | 114 | 0.0 | 0.0 | 0.00 | 0.00 | 0.00 | 92 | 1017.4 |
| 20260506024538 | 5 | 259 | 0.0 | 0.0 | 0.00 | 0.00 | 0.00 | 92 | 1017.3 |
| 20260506023022 | 5 | 156 | 0.0 | 0.0 | 0.00 | 0.00 | 0.00 | 91 | 1017.2 |
| 20260506021521 | 6 | 107 | 0.0 | 0.0 | 0.00 | 0.00 | 0.00 | 90 | 1017.0 |
| 20260506020020 | 7 | 111 | 0.0 | 0.0 | 0.00 | 0.00 | 0.00 | 87 | 1016.8 |
| 20260506014518 | 8 | 160 | 0.0 | 0.0 | 0.00 | 0.00 | 0.00 | 85 | 1016.7 |
| 20260506013014 | 9 | 46 | 0.0 | 1.6 | 0.00 | 0.00 | 0.00 | 79 | 1016.6 |
| 20260506011507 | 10 | 114 | 0.0 | 4.8 | 0.00 | 0.00 | 0.00 | 66 | 1016.4 |
| 20260506010005 | 10 | 184 | 0.0 | 9.7 | 0.00 | 0.00 | 0.00 | 66 | 1016.4 |
| 20260506004558 | 11 | 70 | 0.0 | 6.4 | 0.00 | 0.00 | 0.00 | 67 | 1016.5 |
| 20260506003056 | 11 | 129 | 0.0 | 6.4 | 0.00 | 0.00 | 0.00 | 67 | 1016.5 |
| 20260506001554 | 10 | 69 | 0.0 | 12.9 | 0.00 | 0.00 | 0.00 | 64 | 1016.6 |
| 20260506000053 | 10 | 248 | 0.0 | 6.4 | 0.00 | 0.00 | 0.00 | 67 | 1016.6 |
| 20260505234558 | 10 | 330 | 0.0 | 20.9 | 0.00 | 0.00 | 0.00 | 66 | 1016.5 |
| 20260505233044 | 10 | 269 | 4.8 | 14.5 | 0.00 | 0.00 | 0.00 | 64 | 1016.6 |
| 20260505231555 | 10 | 116 | 1.6 | 6.4 | 0.00 | 0.00 | 0.00 | 65 | 1016.5 |
| 20260505230037 | 10 | 131 | 1.6 | 11.3 | 0.00 | 0.00 | 0.00 | 68 | 1016.7 |
| 20260505224532 | 10 | 211 | 1.6 | 16.1 | 0.00 | 0.00 | 0.00 | 68 | 1016.8 |
| 20260505223033 | 9 | 231 | 0.0 | 9.7 | 0.00 | 0.00 | 0.00 | 69 | 1016.8 |
| 20260505221524 | 10 | 294 | 1.6 | 11.3 | 0.00 | 0.00 | 0.00 | 70 | 1016.9 |
| 20260505220016 | 9 | 280 | 4.8 | 17.7 | 0.00 | 0.00 | 0.00 | 70 | 1017.0 |
| 20260505214518 | 9 | 152 | 1.6 | 12.9 | 0.00 | 0.00 | 0.00 | 71 | 1017.2 |
| 20260505213008 | 8 | 234 | 4.8 | 9.7 | 0.00 | 0.00 | 0.00 | 73 | 1017.2 |
| 20260505211505 | 8 | 354 | 3.2 | 12.9 | 0.00 | 0.00 | 0.00 | 74 | 1017.4 |
| 20260505210059 | 8 | 317 | 4.8 | 17.7 | 0.00 | 0.00 | 0.00 | 74 | 1017.3 |
| 20260505204554 | 8 | 69 | 1.6 | 17.7 | 0.00 | 0.00 | 0.00 | 78 | 1017.4 |
| 20260505203052 | 7 | 68 | 4.8 | 12.9 | 0.00 | 0.00 | 0.00 | 76 | 1017.3 |
| 20260505201544 | 7 | 168 | 3.2 | 12.9 | 0.00 | 0.00 | 0.00 | 79 | 1017.4 |
| 20260505200050 | 7 | 285 | 1.6 | 9.7 | 0.00 | 0.00 | 0.00 | 80 | 1017.3 |
| 20260505194537 | 6 | 265 | 4.8 | 14.5 | 0.00 | 0.00 | 0.00 | 81 | 1017.3 |
| 20260505193035 | 7 | 188 | 4.8 | 14.5 | 0.00 | 0.00 | 0.00 | 81 | 1017.1 |
| 20260505191526 | 7 | 113 | 3.2 | 12.9 | 0.00 | 0.00 | 0.00 | 82 | 1017.0 |
| 20260505190028 | 7 | 158 | 1.6 | 9.7 | 0.00 | 0.00 | 0.00 | 82 | 1016.8 |
| 20260505184520 | 7 | 311 | 0.0 | 3.2 | 0.00 | 0.00 | 0.00 | 84 | 1016.7 |
| 20260505183021 | 6 | 322 | 1.6 | 4.8 | 0.00 | 0.00 | 0.00 | 84 | 1016.6 |
| 20260505181509 | 6 | 229 | 0.0 | 4.8 | 0.00 | 0.00 | 0.00 | 88 | 1016.6 |
| 20260505180009 | 6 | 289 | 0.0 | 6.4 | 0.00 | 0.00 | 0.00 | 88 | 1016.3 |
| 20260505174605 | 5 | 56 | 0.0 | 1.6 | 0.00 | 0.00 | 0.00 | 87 | 1016.1 |
| 20260505173055 | 5 | 244 | 0.0 | 4.8 | 0.00 | 0.00 | 0.00 | 89 | 1016.0 |
| 20260505171551 | 5 | 193 | 0.0 | 1.6 | 0.00 | 0.00 | 0.00 | 90 | 1015.9 |
| 20260505170045 | 5 | 157 | 0.0 | 0.0 | 0.00 | 0.00 | 0.00 | 91 | 1016.0 |
| 20260505164541 | 3 | 38 | 0.0 | 0.0 | 0.00 | 0.00 | 0.00 | 91 | 1015.7 |
| 20260505163037 | 3 | 345 | 0.0 | 1.6 | 0.00 | 0.00 | 0.00 | 92 | 1015.6 |
| 20260505161532 | 3 | 187 | 0.0 | 1.6 | 0.00 | 0.00 | 0.00 | 93 | 1015.2 |